CZ-4C DEB, 42670

Orbit data source: Space-Track

CZ-4C DEB, 42670 is space debris in SSO originally from a launch on Thu, 26 Nov 2015 UTC launched from the Taiyaun Space Center, China (TSC). Debris objects in space refer to the collection of defunct objects orbiting the Earth. Examples of debris include non-operational satellites, rocket bodies, and fragments generated from explosions, collisions, or faulty payload assembly.

Loading next visibility...
Identifier
42670, 2015-069C
Orbit
SSO
Country
Flag of CNCN / PRC
Related business
Manufacturer
Unknown
Mission
Spacecraft
Bus & Motor
Unknown
Mass
Unknown
Launch date (UTC)
2015-11-26 (10 years ago)
Launch vehicle
Unknown
Launch site
Taiyaun Space Center, China (TSC)
Object type
Payload
Rocket body
Debris
Shape & HBR
Unknown
Radar Cross Section
Small (<0.1 m²)

Expand to show TLE details & history
Last TLE update: 14 hours ago

TLE from 14 hours ago
0 CZ-4C DEB
1 42670U 15069C   25258.98290434  .00009754  00000-0  34900-3 0  9995
2 42670  97.5155 322.0002 0064109  54.7994 305.9224 15.27022603491142
Epoch: 2025-09-15T23:35Z
TLE epoch observation values (Epoch: 2025-09-15T23:35:22.934Z)
Latitude
-0.00011°
Longitude
-27.02508°
Altitude
462.183 km
Speed
7.65 km/s
True Right ascension
21h 28m 00s
True Declination
0° 00' 00"
Sunlit
Object was in full shadow at epoch
Visualization orbit readout
Latitude
Unknown
Longitude
Unknown
Altitude
Unknown
Speed
Unknown
Apparent Right ascension
Unknown
Apparent Declination
Unknown
Sunlit
N/A
Visualization observer readout
Local Sidereal Time
06:33:45
Azimuth
Unknown
Elevation
Unknown
Doppler factor
Unknown
Orbital elements
Apogee altitude
525.657 km
Perigee altitude
437.702 km
Semi-major axis
6,859.817 km
Eccentricity
0.00641
Inclination
97.5155°
RAAN
322.0002°
Arg. of periapsis
54.7994°
True anomaly
305.32468°
Mean anomaly
305.9224°
Eccentric anomaly
305.62382°
Mean motion
3.8201 °/min
Orbital period
94.24 mins
BSTAR
0.000349
Loading maneuver chart data...
Computing Atmospheric mass density...
Loading historical data...
Loading historical data...
Loading historical data...
Loading historical data...
Loading historical data...
Loading historical data...
Loading historical data...
Other satellites on launch #69 in the year 2015 (2015-11-26 UTC)

Documentation

Showing up to 5 results
|